Location: Kergrach
(48.3833°N, 4.5167°W)
Time: 09:04:53
(UTC+00:00)

Cosmos 2333 Rocket - Pass Details

Date: 18 February 2020
Orbit: 841 x 861 km, 70.8° (Epoch: 27 March)

Event Time Altitude Azimuth Distance (km) Brightness Sun altitude
Exits shadow 03:19:54 20° 20° (NNE) 1,879 4.4 -39.6°
Drops below altitude 10° 03:21:36 10° 24° (NNE) 2,496 5.1 -39.3°
Sets 03:24:05 0° 27° (NNE) 3,432 6.0 -39.0°
